Regional Weather Roundup
Issued by NWS Goodland, KS

Home | Current Version | Previous Version | Graphics & Text | Print | Product List | Glossary On
Versions: 1 2 3 4 5 6 7 8 9 10 11 12 13 14 15 16 17 18 19 20 21 22 23 24 25 26 27 28 29 30 31 32 33 34 35 36 37 38 39 40 41 42 43 44 45 46 47 48 49 50
000
ASUS43 KGLD 211759
RWRGLD

GOODLAND FORECAST AREA HOURLY WEATHER ROUNDUP
NATIONAL WEATHER SERVICE GOODLAND KS
1100 AM MST SAT JAN 21 2017

...OFFICIAL OBSERVATIONS...

CITY           SKY/WX    TMP DP  RH WIND       PRES   REMARKS
GOODLAND KS    CLOUDY    41  35  79 SE7       29.42S
HILL CITY KS   SUNNY     50  39  66 SE5       29.47R
IMPERIAL NEB   SUNNY     41  26  55 W5        29.45R
MCCOOK NEB     SUNNY     43  33  68 W6        29.45S
AKRON CO       SUNNY     40  24  53 SE17      29.41S
BURLINGTON CO  CLOUDY    39  35  86 SE8       29.41S
LIMON CO       SUNNY     31  29  92 SE8       29.39F
$$

...UNOFFICIAL OBSERVATIONS...

CITY           SKY/WX    TMP DP  RH WIND       PRES   REMARKS
LENORA KS        N/A     49  32  52 CALM        N/A
NORTON KS      SUNNY     46  36  66 NW3       29.45S
SHARON SPRINGS   N/A     40  37  90 NE5         N/A
TRENTON NEB      N/A     42  32  68 CALM        N/A
KIT CARSON CO    N/A     35  32  89 CALM        N/A
YUMA CO        FAIR      37  28  70 CALM      29.42S
$$




USA.gov is the U.S. government's official web portal to all federal, state and local government web resources and services.